Year,Month,Day,Hour,Minute,Value (Times are PST for windspeed in km/hr)
2016,02,21,00,00,0.30
2016,02,21,00,01,0.10
2016,02,21,00,02,1.50
2016,02,21,00,03,2.30
2016,02,21,00,04,1.20
2016,02,21,00,05,5.30
2016,02,21,00,06,3.00
2016,02,21,00,07,1.00
2016,02,21,00,08,0.80
2016,02,21,00,09,0.00
2016,02,21,00,10,3.20
2016,02,21,00,11,1.30
2016,02,21,00,12,0.70
2016,02,21,00,13,0.00
2016,02,21,00,14,0.00
2016,02,21,00,15,0.00
2016,02,21,00,16,0.00
2016,02,21,00,17,0.00
2016,02,21,00,18,0.20
2016,02,21,00,19,1.40
2016,02,21,00,20,0.40
2016,02,21,00,21,0.00
2016,02,21,00,22,0.00
2016,02,21,00,23,0.00
2016,02,21,00,24,0.00
2016,02,21,00,25,0.00
2016,02,21,00,26,0.00
2016,02,21,00,27,0.00
2016,02,21,00,28,0.00
2016,02,21,00,29,0.00
2016,02,21,00,30,0.00
2016,02,21,00,31,0.00
2016,02,21,00,32,0.00
2016,02,21,00,33,0.00
2016,02,21,00,34,0.00
2016,02,21,00,35,1.80
2016,02,21,00,36,2.20
2016,02,21,00,37,1.60
2016,02,21,00,38,0.00
2016,02,21,00,39,0.00
2016,02,21,00,40,0.00
2016,02,21,00,41,0.30
2016,02,21,00,42,0.00
2016,02,21,00,43,0.00
2016,02,21,00,44,0.00
2016,02,21,00,45,0.70
2016,02,21,00,46,0.40
2016,02,21,00,47,0.00
2016,02,21,00,48,0.00
2016,02,21,00,49,0.00
2016,02,21,00,50,0.00
2016,02,21,00,51,0.00
2016,02,21,00,52,0.00
2016,02,21,00,53,0.00
2016,02,21,00,54,0.00
2016,02,21,00,55,1.30
2016,02,21,00,56,0.00
2016,02,21,00,57,0.00
2016,02,21,00,58,0.10
2016,02,21,00,59,0.00
2016,02,21,01,00,0.00
2016,02,21,01,01,0.00
2016,02,21,01,02,0.00
2016,02,21,01,03,0.00
2016,02,21,01,04,0.00
2016,02,21,01,05,0.00
2016,02,21,01,06,0.00
2016,02,21,01,07,0.00
2016,02,21,01,08,0.00
2016,02,21,01,09,0.10
2016,02,21,01,10,0.10
2016,02,21,01,11,0.00
2016,02,21,01,12,0.00
2016,02,21,01,13,0.00
2016,02,21,01,14,0.00
2016,02,21,01,15,0.40
2016,02,21,01,16,0.20
2016,02,21,01,17,0.30
2016,02,21,01,18,0.00
2016,02,21,01,19,0.00
2016,02,21,01,20,0.00
2016,02,21,01,21,0.00
2016,02,21,01,22,0.00
2016,02,21,01,23,0.00
2016,02,21,01,24,0.00
2016,02,21,01,25,0.10
2016,02,21,01,26,0.00
2016,02,21,01,27,0.00
2016,02,21,01,28,0.10
2016,02,21,01,29,1.00
2016,02,21,01,30,0.20
2016,02,21,01,31,0.10
2016,02,21,01,32,0.80
2016,02,21,01,33,0.00
2016,02,21,01,34,0.00
2016,02,21,01,35,0.00
2016,02,21,01,36,0.00
2016,02,21,01,37,0.00
2016,02,21,01,38,0.00
2016,02,21,01,39,0.00
2016,02,21,01,40,0.00
2016,02,21,01,41,0.00
2016,02,21,01,42,0.00
2016,02,21,01,43,0.00
2016,02,21,01,44,0.00
2016,02,21,01,45,0.00
2016,02,21,01,46,0.00
2016,02,21,01,47,0.00
2016,02,21,01,48,0.00
2016,02,21,01,49,0.00
2016,02,21,01,50,0.00
2016,02,21,01,51,0.00
2016,02,21,01,52,0.20
2016,02,21,01,53,0.30
2016,02,21,01,54,0.10
2016,02,21,01,55,0.00
2016,02,21,01,56,0.00
2016,02,21,01,57,0.00
2016,02,21,01,58,0.00
2016,02,21,01,59,0.00
2016,02,21,02,00,0.00
2016,02,21,02,01,0.00
2016,02,21,02,02,0.00
2016,02,21,02,03,0.00
2016,02,21,02,04,0.00
2016,02,21,02,05,0.00
2016,02,21,02,06,0.00
2016,02,21,02,07,0.00
2016,02,21,02,08,0.00
2016,02,21,02,09,0.00
2016,02,21,02,10,0.00
2016,02,21,02,11,0.00
2016,02,21,02,12,0.00
2016,02,21,02,13,0.00
2016,02,21,02,14,0.00
2016,02,21,02,15,0.00
2016,02,21,02,16,0.00
2016,02,21,02,17,0.00
2016,02,21,02,18,0.00
2016,02,21,02,19,0.00
2016,02,21,02,20,0.00
2016,02,21,02,21,2.30
2016,02,21,02,22,0.20
2016,02,21,02,23,0.50
2016,02,21,02,24,2.40
2016,02,21,02,25,0.40
2016,02,21,02,26,2.30
2016,02,21,02,27,1.40
2016,02,21,02,28,0.20
2016,02,21,02,29,0.00
2016,02,21,02,30,1.30
2016,02,21,02,31,3.70
2016,02,21,02,32,3.90
2016,02,21,02,33,4.00
2016,02,21,02,34,2.70
2016,02,21,02,35,2.20
2016,02,21,02,36,5.10
2016,02,21,02,37,7.50
2016,02,21,02,38,3.20
2016,02,21,02,39,5.70
2016,02,21,02,40,2.70
2016,02,21,02,41,7.00
2016,02,21,02,42,2.00
2016,02,21,02,43,6.90
2016,02,21,02,44,6.70
2016,02,21,02,45,4.20
2016,02,21,02,46,7.00
2016,02,21,02,47,7.90
2016,02,21,02,48,9.10
2016,02,21,02,49,5.40
2016,02,21,02,50,5.80
2016,02,21,02,51,6.30
2016,02,21,02,52,5.20
2016,02,21,02,53,7.90
2016,02,21,02,54,10.30
2016,02,21,02,55,11.40
2016,02,21,02,56,12.20
2016,02,21,02,57,7.30
2016,02,21,02,58,6.20
2016,02,21,02,59,8.70
2016,02,21,03,00,9.80
2016,02,21,03,01,11.10
2016,02,21,03,02,11.90
2016,02,21,03,03,9.00
2016,02,21,03,05,10.80
2016,02,21,03,06,11.30
2016,02,21,03,07,11.60
2016,02,21,03,08,11.60
2016,02,21,03,09,10.50
2016,02,21,03,10,9.10
2016,02,21,03,11,11.70
2016,02,21,03,12,8.20
2016,02,21,03,13,9.50
2016,02,21,03,14,9.20
2016,02,21,03,15,12.20
2016,02,21,03,16,9.70
2016,02,21,03,17,7.40
2016,02,21,03,18,9.20
2016,02,21,03,19,7.30
2016,02,21,03,20,8.50
2016,02,21,03,21,9.80
2016,02,21,03,22,9.00
2016,02,21,03,23,9.70
2016,02,21,03,24,6.60
2016,02,21,03,25,11.70
2016,02,21,03,26,10.00
2016,02,21,03,27,11.40
2016,02,21,03,28,9.30
2016,02,21,03,29,12.00
2016,02,21,03,30,10.20
2016,02,21,03,31,11.30
2016,02,21,03,32,11.40
2016,02,21,03,33,12.70
2016,02,21,03,34,10.70
2016,02,21,03,35,10.00
2016,02,21,03,36,8.60
2016,02,21,03,37,7.70
2016,02,21,03,38,10.10
2016,02,21,03,39,13.10
2016,02,21,03,40,10.30
2016,02,21,03,41,11.60
2016,02,21,03,42,10.40
2016,02,21,03,43,12.00
2016,02,21,03,44,10.70
2016,02,21,03,45,13.10
2016,02,21,03,46,8.80
2016,02,21,03,47,8.10
2016,02,21,03,48,8.90
2016,02,21,03,49,6.10
2016,02,21,03,50,7.50
2016,02,21,03,51,7.00
2016,02,21,03,52,7.50
2016,02,21,03,53,10.30
2016,02,21,03,54,5.80
2016,02,21,03,55,8.20
2016,02,21,03,56,10.70
2016,02,21,03,57,11.20
2016,02,21,03,58,11.00
2016,02,21,03,59,8.60
2016,02,21,04,00,9.50
2016,02,21,04,01,10.80
2016,02,21,04,02,6.90
2016,02,21,04,03,9.70
2016,02,21,04,04,6.20
2016,02,21,04,05,8.30
2016,02,21,04,06,6.50
2016,02,21,04,07,13.20
2016,02,21,04,08,11.70
2016,02,21,04,09,7.30
2016,02,21,04,10,9.90
2016,02,21,04,11,10.00
2016,02,21,04,12,7.30
2016,02,21,04,13,8.40
2016,02,21,04,14,7.20
2016,02,21,04,15,5.70
2016,02,21,04,16,5.20
2016,02,21,04,17,7.50
2016,02,21,04,18,7.90
2016,02,21,04,19,5.20
2016,02,21,04,20,7.90
2016,02,21,04,21,7.80
2016,02,21,04,22,5.70
2016,02,21,04,23,7.30
2016,02,21,04,24,7.20
2016,02,21,04,25,10.00
2016,02,21,04,26,7.90
2016,02,21,04,27,5.60
2016,02,21,04,28,8.40
2016,02,21,04,29,6.10
2016,02,21,04,30,9.80
2016,02,21,04,31,5.50
2016,02,21,04,32,5.60
2016,02,21,04,33,6.00
2016,02,21,04,34,4.50
2016,02,21,04,35,3.90
2016,02,21,04,36,6.60
2016,02,21,04,37,6.30
2016,02,21,04,38,3.90
2016,02,21,04,39,4.30
2016,02,21,04,40,3.40
2016,02,21,04,41,3.40
2016,02,21,04,42,6.00
2016,02,21,04,43,8.00
2016,02,21,04,44,6.80
2016,02,21,04,45,3.30
2016,02,21,04,46,6.40
2016,02,21,04,47,5.70
2016,02,21,04,48,4.50
2016,02,21,04,49,9.70
2016,02,21,04,50,6.60
2016,02,21,04,51,4.80
2016,02,21,04,52,5.70
2016,02,21,04,53,6.30
2016,02,21,04,54,4.40
2016,02,21,04,55,5.60
2016,02,21,04,56,6.60
2016,02,21,04,57,5.40
2016,02,21,04,58,6.60
2016,02,21,04,59,5.40
2016,02,21,05,00,5.50
2016,02,21,05,01,6.90
2016,02,21,05,02,5.90
2016,02,21,05,03,5.70
2016,02,21,05,04,4.90
2016,02,21,05,05,4.60
2016,02,21,05,06,3.60
2016,02,21,05,07,6.10
2016,02,21,05,08,6.20
2016,02,21,05,09,4.90
2016,02,21,05,10,3.20
2016,02,21,05,11,5.20
2016,02,21,05,12,3.90
2016,02,21,05,13,3.20
2016,02,21,05,14,3.00
2016,02,21,05,15,4.50
2016,02,21,05,16,3.20
2016,02,21,05,17,6.40
2016,02,21,05,18,11.80
2016,02,21,05,19,6.80
2016,02,21,05,20,7.70
2016,02,21,05,21,9.50
2016,02,21,05,22,10.00
2016,02,21,05,23,8.90
2016,02,21,05,24,10.60
2016,02,21,05,25,12.80
2016,02,21,05,26,10.90
2016,02,21,05,27,11.50
2016,02,21,05,28,11.50
2016,02,21,05,29,10.10
2016,02,21,05,30,8.20
2016,02,21,05,31,11.10
2016,02,21,05,32,12.70
2016,02,21,05,33,4.80
2016,02,21,05,34,7.10
2016,02,21,05,35,9.60
2016,02,21,05,36,7.90
2016,02,21,05,37,13.40
2016,02,21,05,38,11.50
2016,02,21,05,39,11.90
2016,02,21,05,40,13.50
2016,02,21,05,41,16.00
2016,02,21,05,42,13.40
2016,02,21,05,43,11.60
2016,02,21,05,44,14.10
2016,02,21,05,45,13.00
2016,02,21,05,46,9.40
2016,02,21,05,47,12.90
2016,02,21,05,48,14.50
2016,02,21,05,49,15.80
2016,02,21,05,50,13.90
2016,02,21,05,51,15.10
2016,02,21,05,52,12.10
2016,02,21,05,53,12.10
2016,02,21,05,54,13.10
2016,02,21,05,55,12.60
2016,02,21,05,56,12.50
2016,02,21,05,57,15.10
2016,02,21,05,58,15.10
2016,02,21,05,59,13.10
2016,02,21,06,00,15.70
2016,02,21,06,01,12.80
2016,02,21,06,02,7.90
2016,02,21,06,03,13.20
2016,02,21,06,04,12.40
2016,02,21,06,05,15.60
2016,02,21,06,06,16.70
2016,02,21,06,07,15.80
2016,02,21,06,08,15.50
2016,02,21,06,09,16.70
2016,02,21,06,10,17.60
2016,02,21,06,11,16.20
2016,02,21,06,12,15.40
2016,02,21,06,13,14.50
2016,02,21,06,14,15.00
2016,02,21,06,15,14.80
2016,02,21,06,16,13.50
2016,02,21,06,17,14.80
2016,02,21,06,18,14.50
2016,02,21,06,19,15.00
2016,02,21,06,20,16.30
2016,02,21,06,21,13.40
2016,02,21,06,22,15.60
2016,02,21,06,23,12.50
2016,02,21,06,24,16.30
2016,02,21,06,25,13.00
2016,02,21,06,26,16.40
2016,02,21,06,27,13.70
2016,02,21,06,28,9.40
2016,02,21,06,29,10.40
2016,02,21,06,30,13.10
2016,02,21,06,31,13.00
2016,02,21,06,32,10.00
2016,02,21,06,33,13.90
2016,02,21,06,34,13.40
2016,02,21,06,35,13.10
2016,02,21,06,36,8.00
2016,02,21,06,37,8.80
2016,02,21,06,38,13.10
2016,02,21,06,39,12.20
2016,02,21,06,40,10.30
2016,02,21,06,41,13.30
2016,02,21,06,42,13.50
2016,02,21,06,43,9.70
2016,02,21,06,44,14.10
2016,02,21,06,45,10.40
2016,02,21,06,46,9.50
2016,02,21,06,47,7.20
2016,02,21,06,48,8.80
2016,02,21,06,49,11.00
2016,02,21,06,50,7.30
2016,02,21,06,51,5.40
2016,02,21,06,52,10.10
2016,02,21,06,53,13.20
2016,02,21,06,54,13.10
2016,02,21,06,55,13.40
2016,02,21,06,56,13.30
2016,02,21,06,57,9.50
2016,02,21,06,58,13.40
2016,02,21,06,59,15.20
2016,02,21,07,00,15.30
2016,02,21,07,01,12.90
2016,02,21,07,02,12.00
2016,02,21,07,03,19.00
2016,02,21,07,04,13.40
2016,02,21,07,05,18.50
2016,02,21,07,06,14.10
2016,02,21,07,07,11.90
2016,02,21,07,08,12.80
2016,02,21,07,09,12.90
2016,02,21,07,10,17.80
2016,02,21,07,11,15.30
2016,02,21,07,12,7.50
2016,02,21,07,13,6.40
2016,02,21,07,14,5.80
2016,02,21,07,15,7.90
2016,02,21,07,16,7.60
2016,02,21,07,17,6.90
2016,02,21,07,18,2.90
2016,02,21,07,19,2.40
2016,02,21,07,20,1.60
2016,02,21,07,21,0.80
2016,02,21,07,22,2.30
2016,02,21,07,23,2.70
2016,02,21,07,24,1.90
2016,02,21,07,25,0.80
2016,02,21,07,26,0.80
2016,02,21,07,27,4.80
2016,02,21,07,28,1.80
2016,02,21,07,29,0.00
2016,02,21,07,30,0.00
2016,02,21,07,31,0.00
2016,02,21,07,32,1.00
2016,02,21,07,33,6.40
2016,02,21,07,34,3.70
2016,02,21,07,35,1.00
2016,02,21,07,36,1.00
2016,02,21,07,37,1.30
2016,02,21,07,38,0.80
2016,02,21,07,39,1.30
2016,02,21,07,40,0.00
2016,02,21,07,41,0.00
2016,02,21,07,42,0.00
2016,02,21,07,43,0.00
2016,02,21,07,44,1.90
2016,02,21,07,45,1.90
2016,02,21,07,46,1.30
2016,02,21,07,47,1.00
2016,02,21,07,48,1.20
2016,02,21,07,49,0.80
2016,02,21,07,50,1.00
2016,02,21,07,51,1.70
2016,02,21,07,52,1.70
2016,02,21,07,53,0.10
2016,02,21,07,54,0.00
2016,02,21,07,55,0.00
2016,02,21,07,56,0.00
2016,02,21,07,57,0.00
2016,02,21,07,58,0.00
2016,02,21,07,59,0.00
2016,02,21,08,00,0.00
2016,02,21,08,01,0.00
2016,02,21,08,02,0.00
2016,02,21,08,03,0.00
2016,02,21,08,04,0.00
2016,02,21,08,05,0.00
2016,02,21,08,06,0.00
2016,02,21,08,07,0.00
2016,02,21,08,08,0.00
2016,02,21,08,09,0.00
2016,02,21,08,10,0.00
2016,02,21,08,11,0.00
2016,02,21,08,12,0.00
2016,02,21,08,13,0.00
2016,02,21,08,14,0.00
2016,02,21,08,15,0.00
2016,02,21,08,16,0.00
2016,02,21,08,17,0.00
2016,02,21,08,18,0.00
2016,02,21,08,19,0.00
2016,02,21,08,20,0.00
2016,02,21,08,21,0.00
2016,02,21,08,22,1.30
2016,02,21,08,23,3.30
2016,02,21,08,24,2.30
2016,02,21,08,25,3.80
2016,02,21,08,26,5.20
2016,02,21,08,27,2.90
2016,02,21,08,28,1.60
2016,02,21,08,29,1.80
2016,02,21,08,30,2.20
2016,02,21,08,31,4.30
2016,02,21,08,32,4.80
2016,02,21,08,33,3.30
2016,02,21,08,34,0.80
2016,02,21,08,35,2.90
2016,02,21,08,36,1.20
2016,02,21,08,37,1.20
2016,02,21,08,38,4.90
2016,02,21,08,39,2.30
2016,02,21,08,40,3.40
2016,02,21,08,41,1.90
2016,02,21,08,42,3.50
2016,02,21,08,43,2.70
2016,02,21,08,44,2.90
2016,02,21,08,45,2.10
2016,02,21,08,46,1.10
2016,02,21,08,47,2.60
2016,02,21,08,48,6.30
2016,02,21,08,49,6.00
2016,02,21,08,50,5.20
2016,02,21,08,51,4.70
2016,02,21,08,52,3.30
2016,02,21,08,53,4.40
2016,02,21,08,54,2.80
2016,02,21,08,55,3.30
2016,02,21,08,56,4.60
2016,02,21,08,57,2.40
2016,02,21,08,58,4.80
2016,02,21,08,59,2.30
2016,02,21,09,00,2.30
2016,02,21,09,01,2.40
2016,02,21,09,02,5.50
2016,02,21,09,03,3.30
2016,02,21,09,04,2.30
2016,02,21,09,05,3.40
2016,02,21,09,06,3.20
2016,02,21,09,07,2.10
2016,02,21,09,08,1.90
2016,02,21,09,09,1.40
2016,02,21,09,10,0.10
2016,02,21,09,11,0.00
2016,02,21,09,12,1.40
2016,02,21,09,13,1.60
2016,02,21,09,14,4.20
2016,02,21,09,15,3.60
2016,02,21,09,16,2.40
2016,02,21,09,17,2.70
2016,02,21,09,18,2.30
2016,02,21,09,19,1.40
2016,02,21,09,20,1.30
2016,02,21,09,21,0.70
2016,02,21,09,22,0.20
2016,02,21,09,23,0.80
2016,02,21,09,24,0.60
2016,02,21,09,25,0.30
2016,02,21,09,26,0.00
2016,02,21,09,27,0.80
2016,02,21,09,28,1.40
2016,02,21,09,29,1.50
2016,02,21,09,30,4.10
2016,02,21,09,31,4.70
2016,02,21,09,32,6.10
2016,02,21,09,33,3.10
2016,02,21,09,34,4.80
2016,02,21,09,35,3.60
2016,02,21,09,36,3.80
2016,02,21,09,37,5.40
2016,02,21,09,38,5.80
2016,02,21,09,39,4.80
2016,02,21,09,40,5.80
2016,02,21,09,41,4.60
2016,02,21,09,42,5.40
2016,02,21,09,43,2.70
2016,02,21,09,44,5.40
2016,02,21,09,45,2.60
2016,02,21,09,46,4.90
2016,02,21,09,47,4.80
2016,02,21,09,48,4.60
2016,02,21,09,49,8.00
2016,02,21,09,50,8.00
2016,02,21,09,51,4.50
2016,02,21,09,52,6.20
2016,02,21,09,53,8.70
2016,02,21,09,54,5.80
2016,02,21,09,55,7.60
2016,02,21,09,56,4.60
2016,02,21,09,57,6.30
2016,02,21,09,58,6.90
2016,02,21,09,59,9.40
2016,02,21,10,00,12.90
2016,02,21,10,01,9.70
2016,02,21,10,02,6.90
2016,02,21,10,03,7.70
2016,02,21,10,04,8.60
2016,02,21,10,05,6.30
2016,02,21,10,06,7.00
2016,02,21,10,07,9.90
2016,02,21,10,08,10.70
2016,02,21,10,09,9.20
2016,02,21,10,10,6.40
2016,02,21,10,11,7.20
2016,02,21,10,12,9.80
2016,02,21,10,13,7.30
2016,02,21,10,14,8.60
2016,02,21,10,15,9.20
2016,02,21,10,16,7.10
2016,02,21,10,17,13.60
2016,02,21,10,18,12.30
2016,02,21,10,19,10.00
2016,02,21,10,20,10.60
2016,02,21,10,21,11.20
2016,02,21,10,22,11.00
2016,02,21,10,23,8.60
2016,02,21,10,24,11.30
2016,02,21,10,25,11.90
2016,02,21,10,26,14.20
2016,02,21,10,27,14.80
2016,02,21,10,28,15.10
2016,02,21,10,29,11.30
2016,02,21,10,30,12.30
2016,02,21,10,31,18.20
2016,02,21,10,32,17.20
2016,02,21,10,33,12.20
2016,02,21,10,34,14.50
2016,02,21,10,35,13.70
2016,02,21,10,36,20.00
2016,02,21,10,37,16.30
2016,02,21,10,38,19.70
2016,02,21,10,39,15.10
2016,02,21,10,40,14.60
2016,02,21,10,41,17.80
2016,02,21,10,42,14.50
2016,02,21,10,43,18.60
2016,02,21,10,44,18.70
2016,02,21,10,45,15.90
2016,02,21,10,46,18.70
2016,02,21,10,47,19.80
2016,02,21,10,48,19.40
2016,02,21,10,49,19.30
2016,02,21,10,50,21.40
2016,02,21,10,51,20.30
2016,02,21,10,52,17.60
2016,02,21,10,53,14.30
2016,02,21,10,54,19.40
2016,02,21,10,55,18.60
2016,02,21,10,56,13.50
2016,02,21,10,57,17.30
2016,02,21,10,58,20.00
2016,02,21,10,59,18.50
2016,02,21,11,00,12.90
2016,02,21,11,01,18.30
2016,02,21,11,02,17.70
2016,02,21,11,03,18.50
2016,02,21,11,04,15.40
2016,02,21,11,05,19.10
2016,02,21,11,06,15.40
2016,02,21,11,07,18.50
2016,02,21,11,08,19.80
2016,02,21,11,09,14.30
2016,02,21,11,10,20.00
2016,02,21,11,11,14.20
2016,02,21,11,12,18.80
2016,02,21,11,13,19.80
2016,02,21,11,14,19.40
2016,02,21,11,15,19.30
2016,02,21,11,16,19.30
2016,02,21,11,17,20.10
2016,02,21,11,18,17.20
2016,02,21,11,19,15.80
2016,02,21,11,20,16.70
2016,02,21,11,21,15.90
2016,02,21,11,22,17.50
2016,02,21,11,23,17.90
2016,02,21,11,24,17.10
2016,02,21,11,25,16.80
2016,02,21,11,26,15.30
2016,02,21,11,27,15.30
2016,02,21,11,28,17.30
2016,02,21,11,29,19.80
2016,02,21,11,30,17.50
2016,02,21,11,31,20.10
2016,02,21,11,32,19.70
2016,02,21,11,33,19.40
2016,02,21,11,34,20.70
2016,02,21,11,35,18.50
2016,02,21,11,36,18.10
2016,02,21,11,37,20.70
2016,02,21,11,38,19.90
2016,02,21,11,39,18.00
2016,02,21,11,40,15.50
2016,02,21,11,41,20.40
2016,02,21,11,42,17.60
2016,02,21,11,43,21.40
2016,02,21,11,44,21.10
2016,02,21,11,45,20.30
2016,02,21,11,46,18.40
2016,02,21,11,47,19.00
2016,02,21,11,48,15.40
2016,02,21,11,49,17.80
2016,02,21,11,50,17.60
2016,02,21,11,51,19.70
2016,02,21,11,52,22.10
2016,02,21,11,53,22.00
2016,02,21,11,54,16.30
2016,02,21,11,55,17.10
2016,02,21,11,56,15.60
2016,02,21,11,57,19.60
2016,02,21,11,58,17.10
2016,02,21,11,59,16.30
2016,02,21,12,00,19.80
2016,02,21,12,01,15.60
2016,02,21,12,02,17.00
2016,02,21,12,03,18.30
2016,02,21,12,04,21.40
2016,02,21,12,05,17.50
2016,02,21,12,06,16.30
2016,02,21,12,07,18.80
2016,02,21,12,08,16.40
2016,02,21,12,09,15.60
2016,02,21,12,10,19.60
2016,02,21,12,11,14.50
2016,02,21,12,12,16.50
2016,02,21,12,13,16.20
2016,02,21,12,14,14.10
2016,02,21,12,15,13.70
2016,02,21,12,16,18.90
2016,02,21,12,17,14.70
2016,02,21,12,18,15.30
2016,02,21,12,19,16.10
2016,02,21,12,20,18.50
2016,02,21,12,21,18.60
2016,02,21,12,22,13.90
2016,02,21,12,23,15.70
2016,02,21,12,24,18.70
2016,02,21,12,25,16.50
2016,02,21,12,26,16.70
2016,02,21,12,27,12.10
2016,02,21,12,28,15.70
2016,02,21,12,29,17.60
2016,02,21,12,30,12.60
2016,02,21,12,31,15.80
2016,02,21,12,32,15.20
2016,02,21,12,33,15.20
2016,02,21,12,34,13.90
2016,02,21,12,35,16.00
2016,02,21,12,36,14.80
2016,02,21,12,37,12.80
2016,02,21,12,38,13.10
2016,02,21,12,39,14.60
2016,02,21,12,40,14.70
2016,02,21,12,41,16.00
2016,02,21,12,42,15.90
2016,02,21,12,43,16.70
2016,02,21,12,44,16.20
2016,02,21,12,45,12.30
2016,02,21,12,46,12.80
2016,02,21,12,47,10.30
2016,02,21,12,48,7.60
2016,02,21,12,49,9.80
2016,02,21,12,50,13.90
2016,02,21,12,51,16.60
2016,02,21,12,52,14.80
2016,02,21,12,53,14.00
2016,02,21,12,54,10.70
2016,02,21,12,55,11.20
2016,02,21,12,56,12.60
2016,02,21,12,57,10.50
2016,02,21,12,58,7.30
2016,02,21,12,59,7.00
2016,02,21,13,00,9.00
2016,02,21,13,01,9.40
2016,02,21,13,02,11.10
2016,02,21,13,03,7.90
2016,02,21,13,04,7.30
2016,02,21,13,05,7.20
2016,02,21,13,06,7.80
2016,02,21,13,07,6.40
2016,02,21,13,08,9.00
2016,02,21,13,09,9.80
2016,02,21,13,10,9.40
2016,02,21,13,11,14.70
2016,02,21,13,12,14.80
2016,02,21,13,13,15.30
2016,02,21,13,14,13.60
2016,02,21,13,15,12.70
2016,02,21,13,16,13.60
2016,02,21,13,17,10.40
2016,02,21,13,18,10.50
2016,02,21,13,19,9.80
2016,02,21,13,20,3.70
2016,02,21,13,21,2.70
2016,02,21,13,22,3.80
2016,02,21,13,23,3.50
2016,02,21,13,24,6.40
2016,02,21,13,25,5.00
2016,02,21,13,26,7.80
2016,02,21,13,27,6.10
2016,02,21,13,28,4.80
2016,02,21,13,29,9.80
2016,02,21,13,30,5.10
2016,02,21,13,31,4.70
2016,02,21,13,32,2.80
2016,02,21,13,33,5.10
2016,02,21,13,34,4.10
2016,02,21,13,35,4.30
2016,02,21,13,36,5.40
2016,02,21,13,37,4.40
2016,02,21,13,38,5.40
2016,02,21,13,39,6.80
2016,02,21,13,40,3.90
2016,02,21,13,41,4.90
2016,02,21,13,42,6.80
2016,02,21,13,43,5.70
2016,02,21,13,44,2.00
2016,02,21,13,45,1.50
2016,02,21,13,46,4.40
2016,02,21,13,47,6.10
2016,02,21,13,48,4.60
2016,02,21,13,49,6.70
2016,02,21,13,50,4.00
2016,02,21,13,51,4.30
2016,02,21,13,52,5.60
2016,02,21,13,53,15.10
2016,02,21,13,54,11.60
2016,02,21,13,55,8.90
2016,02,21,13,56,3.80
2016,02,21,13,57,6.00
2016,02,21,13,58,2.50
2016,02,21,13,59,3.10
2016,02,21,14,00,1.20
2016,02,21,14,01,1.30
2016,02,21,14,02,0.30
2016,02,21,14,03,0.10
2016,02,21,14,04,2.90
2016,02,21,14,05,8.60
2016,02,21,14,06,9.60
2016,02,21,14,07,4.70
2016,02,21,14,08,2.80
2016,02,21,14,09,3.60
2016,02,21,14,10,3.20
2016,02,21,14,11,4.50
2016,02,21,14,12,5.20
2016,02,21,14,13,3.80
2016,02,21,14,14,6.00
2016,02,21,14,15,4.30
2016,02,21,14,16,6.00
2016,02,21,14,17,4.50
2016,02,21,14,18,3.20
2016,02,21,14,19,3.40
2016,02,21,14,20,4.60
2016,02,21,14,21,4.40
2016,02,21,14,22,4.70
2016,02,21,14,23,4.90
2016,02,21,14,24,3.50
2016,02,21,14,25,5.80
2016,02,21,14,26,4.70
2016,02,21,14,27,2.70
2016,02,21,14,28,2.40
2016,02,21,14,29,0.00
2016,02,21,14,30,1.10
2016,02,21,14,31,4.20
2016,02,21,14,32,1.80
2016,02,21,14,33,2.90
2016,02,21,14,34,2.70
2016,02,21,14,35,2.90
2016,02,21,14,36,3.40
2016,02,21,14,37,2.70
2016,02,21,14,38,5.30
2016,02,21,14,39,3.10
2016,02,21,14,40,1.70
2016,02,21,14,41,4.60
2016,02,21,14,42,4.20
2016,02,21,14,43,2.20
2016,02,21,14,44,3.90
2016,02,21,14,45,2.90
2016,02,21,14,46,1.10
2016,02,21,14,47,4.50
2016,02,21,14,48,2.60
2016,02,21,14,49,1.00
2016,02,21,14,50,3.10
2016,02,21,14,51,4.60
2016,02,21,14,52,3.80
2016,02,21,14,53,3.00
2016,02,21,14,54,3.50
2016,02,21,14,55,3.20
2016,02,21,14,56,3.00
2016,02,21,14,57,3.30
2016,02,21,14,58,5.40
2016,02,21,14,59,4.30
2016,02,21,15,00,6.90
2016,02,21,15,01,3.20
2016,02,21,15,02,2.60
2016,02,21,15,03,3.60
2016,02,21,15,04,3.40
2016,02,21,15,05,2.90
2016,02,21,15,06,2.40
2016,02,21,15,07,2.30
2016,02,21,15,08,2.40
2016,02,21,15,09,3.50
2016,02,21,15,10,1.80
2016,02,21,15,11,2.50
2016,02,21,15,12,5.50
2016,02,21,15,13,3.30
2016,02,21,15,14,1.40
2016,02,21,15,15,6.10
2016,02,21,15,16,3.20
2016,02,21,15,17,2.40
2016,02,21,15,18,3.10
2016,02,21,15,19,5.20
2016,02,21,15,20,6.00
2016,02,21,15,21,3.60
2016,02,21,15,22,3.70
2016,02,21,15,23,2.80
2016,02,21,15,24,0.30
2016,02,21,15,25,0.80
2016,02,21,15,26,2.30
2016,02,21,15,27,3.60
2016,02,21,15,28,6.00
2016,02,21,15,29,8.60
2016,02,21,15,30,7.60
2016,02,21,15,31,6.40
2016,02,21,15,32,4.80
2016,02,21,15,33,5.90
2016,02,21,15,34,4.10
2016,02,21,15,35,6.30
2016,02,21,15,36,3.80
2016,02,21,15,37,6.60
2016,02,21,15,38,7.00
2016,02,21,15,39,6.90
2016,02,21,15,40,9.50
2016,02,21,15,41,13.50
2016,02,21,15,42,4.50
2016,02,21,15,43,6.90
2016,02,21,15,44,7.00
2016,02,21,15,45,8.40
2016,02,21,15,46,8.10
2016,02,21,15,47,7.80
2016,02,21,15,48,5.60
2016,02,21,15,49,8.60
2016,02,21,15,50,6.30
2016,02,21,15,51,5.10
2016,02,21,15,52,7.70
2016,02,21,15,53,9.90
2016,02,21,15,54,8.00
2016,02,21,15,55,5.80
2016,02,21,15,56,5.80
2016,02,21,15,57,10.20
2016,02,21,15,58,7.90
2016,02,21,15,59,3.80
2016,02,21,16,00,6.70
2016,02,21,16,01,6.60
2016,02,21,16,02,6.50
2016,02,21,16,03,4.70
2016,02,21,16,04,7.50
2016,02,21,16,05,5.50
2016,02,21,16,06,6.80
2016,02,21,16,07,9.40
2016,02,21,16,08,5.70
2016,02,21,16,09,4.10
2016,02,21,16,10,3.00
2016,02,21,16,11,3.40
2016,02,21,16,12,4.50
2016,02,21,16,13,7.50
2016,02,21,16,14,6.70
2016,02,21,16,15,7.00
2016,02,21,16,16,3.50
2016,02,21,16,17,5.80
2016,02,21,16,18,7.20
2016,02,21,16,19,5.70
2016,02,21,16,20,6.40
2016,02,21,16,21,8.60
2016,02,21,16,22,4.40
2016,02,21,16,23,7.00
2016,02,21,16,24,10.60
2016,02,21,16,25,10.40
2016,02,21,16,26,11.30
2016,02,21,16,27,16.20
2016,02,21,16,28,12.40
2016,02,21,16,29,14.60
2016,02,21,16,30,15.70
2016,02,21,16,31,19.00
2016,02,21,16,32,15.40
2016,02,21,16,33,17.50
2016,02,21,16,34,18.80
2016,02,21,16,35,19.70
2016,02,21,16,36,16.90
2016,02,21,16,37,14.70
2016,02,21,16,38,16.70
2016,02,21,16,39,17.70
2016,02,21,16,40,18.90
2016,02,21,16,41,15.40
2016,02,21,16,42,17.80
2016,02,21,16,43,17.80
2016,02,21,16,44,16.00
2016,02,21,16,45,17.90
2016,02,21,16,46,19.40
2016,02,21,16,47,16.00
2016,02,21,16,48,17.80
2016,02,21,16,49,16.90
2016,02,21,16,50,17.00
2016,02,21,16,51,13.40
2016,02,21,16,52,15.40
2016,02,21,16,53,13.90
2016,02,21,16,54,14.50
2016,02,21,16,55,17.90
2016,02,21,16,56,17.70
2016,02,21,16,57,16.10
2016,02,21,16,58,16.60
2016,02,21,16,59,15.20
2016,02,21,17,00,18.10
2016,02,21,17,01,16.20
2016,02,21,17,02,14.70
2016,02,21,17,03,17.20
2016,02,21,17,04,17.50
2016,02,21,17,05,20.10
2016,02,21,17,06,19.10
2016,02,21,17,07,16.80
2016,02,21,17,08,14.70
2016,02,21,17,09,16.80
2016,02,21,17,10,17.90
2016,02,21,17,11,19.60
2016,02,21,17,12,16.60
2016,02,21,17,13,15.40
2016,02,21,17,14,19.70
2016,02,21,17,15,14.40
2016,02,21,17,16,15.70
2016,02,21,17,17,17.30
2016,02,21,17,18,14.10
2016,02,21,17,19,13.80
2016,02,21,17,20,16.30
2016,02,21,17,21,14.70
2016,02,21,17,22,16.10
2016,02,21,17,23,17.40
2016,02,21,17,24,14.50
2016,02,21,17,25,13.40
2016,02,21,17,26,17.00
2016,02,21,17,27,16.70
2016,02,21,17,28,15.00
2016,02,21,17,29,15.40
2016,02,21,17,30,16.30
2016,02,21,17,31,16.80
2016,02,21,17,32,16.70
2016,02,21,17,33,15.70
2016,02,21,17,34,14.80
2016,02,21,17,35,12.70
2016,02,21,17,36,15.00
2016,02,21,17,37,16.20
2016,02,21,17,38,14.50
2016,02,21,17,39,13.20
2016,02,21,17,40,14.80
2016,02,21,17,41,14.30
2016,02,21,17,42,12.50
2016,02,21,17,43,11.40
2016,02,21,17,44,16.60
2016,02,21,17,45,16.70
2016,02,21,17,46,14.50
2016,02,21,17,47,14.50
2016,02,21,17,48,13.70
2016,02,21,17,49,13.40